Location: Arbon
(43.0005°N, 0.7472°E)
Time: 22:44:15
(UTC+00:00)

Altair - Pass Details

Date: 01 December 2020
Orbit: 1501 x 1682 km, 47.2° (Epoch: 26 January)

Event Time Altitude Azimuth Distance (km) Brightness Sun altitude
Rises 02:00:10 0° 295° (WNW) 4,643 - -55.1°
Reaches altitude 10° 02:03:15 10° 292° (WNW) 3,656 - -54.6°
Maximum altitude 02:12:08 58° 216° (SW) 1,723 - -53.1°
Drops below altitude 10° 02:21:08 10° 141° (SE) 3,696 - -51.5°
Exits shadow 02:21:30 - 140° (SE) 3,813 9.7 -51.5°
Sets 02:24:16 0° 137° (SE) 4,697 10.2 -51.0°
